Volver al catálogo

DMSP 5D-3 F19

USA 249

ActivoMeteoSSO
NORAD 39630·PAYLOAD·🇺🇸 United States

Lanzado Apr 3, 2014 desde Vandenberg Space Force Base

Loading…

Próximos Pases (próximas 24 horas)

TLE

ActualizadoSource: Space-Track

Época: Sep 14, 2026, 14:35 UTC

1 39630U 14015A   26257.60780349  .00000060  00000-0  53422-4 0  9997
2 39630  98.7882 256.1445 0009630 319.4043  40.6412 14.15002240642642

Sigue DMSP 5D-3 F19 en tiempo real con AllMySat

Download on the App Store